Time,TemperatureF,DewpointF,PressureIn,WindDirection,WindDirectionDegrees,WindSpeedMPH,WindSpeedGustMPH,Humidity,HourlyPrecipIn,Conditions,Clouds,dailyrainin,SoftwareType,DateUTC
2013-04-02 00:01:00,50.2,28.4,29.68,NNE,33,3.6,5.8,43,0.00,,,0.00,WUHU216WMR968SP,2013-04-02 05:01:00,
2013-04-02 00:06:00,50.4,28.6,29.68,NNE,33,3.3,5.8,43,0.00,,,0.00,WUHU216WMR968SP,2013-04-02 05:06:00,
2013-04-02 00:11:00,50.2,28.4,29.68,NE,34,2.8,5.4,43,0.00,,,0.00,WUHU216WMR968SP,2013-04-02 05:11:00,
2013-04-02 00:16:00,50.2,27.8,29.68,NE,52,2.2,5.4,42,0.00,,,0.00,WUHU216WMR968SP,2013-04-02 05:16:00,
2013-04-02 00:21:00,50.2,27.8,29.68,NE,34,2.7,4.9,42,0.00,,,0.00,WUHU216WMR968SP,2013-04-02 05:21:00,
2013-04-02 00:26:00,50.2,27.8,29.68,North,6,2.7,5.4,42,0.00,,,0.00,WUHU216WMR968SP,2013-04-02 05:26:00,
2013-04-02 00:31:00,50.2,27.8,29.68,NNE,24,2.7,5.4,42,0.00,,,0.00,WUHU216WMR968SP,2013-04-02 05:31:00,
2013-04-02 00:36:00,50.2,27.8,29.68,North,9,2.7,4.9,42,0.00,,,0.00,WUHU216WMR968SP,2013-04-02 05:36:00,
2013-04-02 00:41:00,50.2,27.2,29.68,North,5,3.2,5.8,41,0.00,,,0.00,WUHU216WMR968SP,2013-04-02 05:41:00,
2013-04-02 00:46:00,50.2,27.2,29.68,North,5,3.0,6.3,41,0.00,,,0.00,WUHU216WMR968SP,2013-04-02 05:46:00,
2013-04-02 00:51:00,50.2,27.2,29.71,North,0,3.8,6.3,41,0.00,,,0.00,WUHU216WMR968SP,2013-04-02 05:51:00,
2013-04-02 00:56:00,50.2,27.2,29.71,North,6,4.5,5.4,41,0.00,,,0.00,WUHU216WMR968SP,2013-04-02 05:56:00,
2013-04-02 01:01:00,50.0,27.0,29.71,NNE,15,4.5,5.8,41,0.00,,,0.00,WUHU216WMR968SP,2013-04-02 06:01:00,
2013-04-02 01:06:00,50.0,27.0,29.71,NNE,21,4.9,6.7,41,0.00,,,0.00,WUHU216WMR968SP,2013-04-02 06:06:00,
2013-04-02 01:11:00,50.0,27.0,29.71,NNE,14,3.6,7.6,41,0.00,,,0.00,WUHU216WMR968SP,2013-04-02 06:11:00,
2013-04-02 01:17:00,50.0,27.0,29.71,North,6,2.2,7.6,41,0.00,,,0.00,WUHU216WMR968SP,2013-04-02 06:17:00,
2013-04-02 01:22:00,49.8,26.9,29.71,North,6,3.1,5.8,41,0.00,,,0.00,WUHU216WMR968SP,2013-04-02 06:22:00,
2013-04-02 01:27:00,49.8,26.9,29.71,NNW,341,4.0,5.8,41,0.00,,,0.00,WUHU216WMR968SP,2013-04-02 06:27:00,
2013-04-02 01:32:00,49.8,26.9,29.71,North,357,4.9,8.7,41,0.00,,,0.00,WUHU216WMR968SP,2013-04-02 06:32:00,
2013-04-02 01:37:00,50.0,26.4,29.71,North,9,3.7,8.7,40,0.00,,,0.00,WUHU216WMR968SP,2013-04-02 06:37:00,
2013-04-02 01:42:00,50.0,27.0,29.71,NNE,14,4.0,7.6,41,0.00,,,0.00,WUHU216WMR968SP,2013-04-02 06:42:00,
2013-04-02 01:47:00,50.0,27.0,29.71,NNE,20,6.7,8.1,41,0.00,,,0.00,WUHU216WMR968SP,2013-04-02 06:47:00,
2013-04-02 01:52:00,50.0,26.4,29.71,North,11,3.6,8.1,40,0.00,,,0.00,WUHU216WMR968SP,2013-04-02 06:52:00,
2013-04-02 01:57:00,49.8,26.9,29.71,North,359,4.0,6.7,41,0.00,,,0.00,WUHU216WMR968SP,2013-04-02 06:57:00,
2013-04-02 02:02:00,49.8,26.9,29.71,North,10,4.0,6.3,41,0.00,,,0.00,WUHU216WMR968SP,2013-04-02 07:02:00,
2013-04-02 02:07:00,49.6,26.7,29.71,North,0,3.6,6.3,41,0.00,,,0.00,WUHU216WMR968SP,2013-04-02 07:07:00,
2013-04-02 02:12:00,49.6,26.7,29.71,North,6,5.0,8.1,41,0.00,,,0.00,WUHU216WMR968SP,2013-04-02 07:12:00,
2013-04-02 02:17:00,49.5,26.6,29.74,North,7,5.2,8.1,41,0.00,,,0.00,WUHU216WMR968SP,2013-04-02 07:17:00,
2013-04-02 02:22:00,49.5,26.6,29.74,North,1,4.9,7.2,41,0.00,,,0.00,WUHU216WMR968SP,2013-04-02 07:22:00,
2013-04-02 02:27:00,49.3,26.4,29.74,North,7,4.4,8.1,41,0.00,,,0.00,WUHU216WMR968SP,2013-04-02 07:27:00,
2013-04-02 02:32:00,49.1,26.2,29.74,NNE,17,4.6,8.1,41,0.00,,,0.00,WUHU216WMR968SP,2013-04-02 07:32:00,
2013-04-02 02:37:00,49.1,26.2,29.74,NNE,12,3.6,7.6,41,0.00,,,0.00,WUHU216WMR968SP,2013-04-02 07:37:00,
2013-04-02 02:42:00,49.1,26.2,29.74,North,2,3.6,6.3,41,0.00,,,0.00,WUHU216WMR968SP,2013-04-02 07:42:00,
2013-04-02 02:47:00,49.1,26.2,29.74,NNE,12,4.0,8.1,41,0.00,,,0.00,WUHU216WMR968SP,2013-04-02 07:47:00,
2013-04-02 02:52:00,49.1,26.2,29.74,NNE,17,2.7,8.1,41,0.00,,,0.00,WUHU216WMR968SP,2013-04-02 07:52:00,
2013-04-02 02:57:00,49.3,26.4,29.74,North,8,4.5,5.8,41,0.00,,,0.00,WUHU216WMR968SP,2013-04-02 07:57:00,
2013-04-02 03:02:00,49.3,26.4,29.74,North,11,4.5,6.7,41,0.00,,,0.00,WUHU216WMR968SP,2013-04-02 08:02:00,
2013-04-02 03:07:00,49.3,25.8,29.74,North,6,3.5,8.1,40,0.00,,,0.00,WUHU216WMR968SP,2013-04-02 08:07:00,
2013-04-02 03:13:00,49.5,26.0,29.74,NNE,18,4.0,8.3,40,0.00,,,0.00,WUHU216WMR968SP,2013-04-02 08:13:00,
2013-04-02 03:18:00,49.5,26.0,29.74,NNE,20,4.5,8.3,40,0.00,,,0.00,WUHU216WMR968SP,2013-04-02 08:18:00,
2013-04-02 03:23:00,49.5,25.4,29.74,NNE,12,4.2,8.3,39,0.00,,,0.00,WUHU216WMR968SP,2013-04-02 08:23:00,
2013-04-02 03:28:00,49.5,24.7,29.74,NNW,341,5.8,8.7,38,0.00,,,0.00,WUHU216WMR968SP,2013-04-02 08:28:00,
2013-04-02 03:33:00,49.5,24.7,29.74,NNE,12,5.8,9.6,38,0.00,,,0.00,WUHU216WMR968SP,2013-04-02 08:33:00,
2013-04-02 03:38:00,49.3,24.5,29.74,NNE,16,4.3,9.6,38,0.00,,,0.00,WUHU216WMR968SP,2013-04-02 08:38:00,
2013-04-02 03:43:00,49.3,24.5,29.74,North,6,4.6,8.1,38,0.00,,,0.00,WUHU216WMR968SP,2013-04-02 08:43:00,
2013-04-02 03:48:00,49.1,23.7,29.74,North,2,4.7,8.1,37,0.00,,,0.00,WUHU216WMR968SP,2013-04-02 08:48:00,
2013-04-02 03:53:00,49.1,24.4,29.74,NE,40,3.1,8.1,38,0.00,,,0.00,WUHU216WMR968SP,2013-04-02 08:53:00,
2013-04-02 03:58:00,49.1,23.7,29.74,North,10,4.5,8.3,37,0.00,,,0.00,WUHU216WMR968SP,2013-04-02 08:58:00,
2013-04-02 04:03:00,48.9,23.5,29.74,NNE,17,5.4,10.5,37,0.00,,,0.00,WUHU216WMR968SP,2013-04-02 09:03:00,
2013-04-02 04:08:00,48.9,22.9,29.74,North,7,6.3,10.5,36,0.00,,,0.00,WUHU216WMR968SP,2013-04-02 09:08:00,
2013-04-02 04:13:00,48.7,22.7,29.74,NNE,13,5.2,12.8,36,0.00,,,0.00,WUHU216WMR968SP,2013-04-02 09:13:00,
2013-04-02 04:18:00,48.7,21.3,29.74,North,5,7.0,12.8,34,0.00,,,0.00,WUHU216WMR968SP,2013-04-02 09:18:00,
2013-04-02 04:23:00,48.6,21.2,29.74,NE,38,5.8,10.5,34,0.00,,,0.00,WUHU216WMR968SP,2013-04-02 09:23:00,
2013-04-02 04:28:00,48.2,20.9,29.74,NNE,14,5.8,8.1,34,0.00,,,0.00,WUHU216WMR968SP,2013-04-02 09:28:00,
2013-04-02 04:33:00,48.0,21.4,29.74,North,357,6.3,8.3,35,0.00,,,0.00,WUHU216WMR968SP,2013-04-02 09:33:00,
2013-04-02 04:38:00,47.8,20.5,29.74,NNE,18,6.6,12.3,34,0.00,,,0.00,WUHU216WMR968SP,2013-04-02 09:38:00,
2013-04-02 04:43:00,47.7,20.4,29.74,North,6,5.0,12.3,34,0.00,,,0.00,WUHU216WMR968SP,2013-04-02 09:43:00,
2013-04-02 04:48:00,47.7,21.1,29.74,North,0,4.5,8.1,35,0.00,,,0.00,WUHU216WMR968SP,2013-04-02 09:48:00,
2013-04-02 04:53:00,47.5,20.3,29.74,NNW,343,6.3,8.1,34,0.00,,,0.00,WUHU216WMR968SP,2013-04-02 09:53:00,
2013-04-02 04:58:00,47.5,21.0,29.74,NNE,26,4.0,8.1,35,0.00,,,0.00,WUHU216WMR968SP,2013-04-02 09:58:00,
2013-04-02 05:03:00,47.5,20.3,29.74,NNE,26,6.3,8.7,34,0.00,,,0.00,WUHU216WMR968SP,2013-04-02 10:03:00,
2013-04-02 05:08:00,47.3,20.1,29.74,North,3,5.6,8.7,34,0.00,,,0.00,WUHU216WMR968SP,2013-04-02 10:08:00,
2013-04-02 05:13:00,47.1,19.9,29.74,NNE,26,4.5,8.3,34,0.00,,,0.00,WUHU216WMR968SP,2013-04-02 10:13:00,
2013-04-02 05:18:00,46.9,19.7,29.74,NNE,28,4.5,6.7,34,0.00,,,0.00,WUHU216WMR968SP,2013-04-02 10:18:00,
2013-04-02 05:23:00,46.9,19.7,29.74,NE,53,5.4,6.7,34,0.00,,,0.00,WUHU216WMR968SP,2013-04-02 10:23:00,
2013-04-02 05:28:00,46.8,19.7,29.74,NNE,13,4.8,8.7,34,0.00,,,0.00,WUHU216WMR968SP,2013-04-02 10:28:00,
2013-04-02 05:33:00,46.8,19.7,29.77,NW,319,4.9,8.7,34,0.00,,,0.00,WUHU216WMR968SP,2013-04-02 10:33:00,
2013-04-02 05:38:00,46.8,19.7,29.77,NNE,24,4.1,8.1,34,0.00,,,0.00,WUHU216WMR968SP,2013-04-02 10:38:00,
2013-04-02 05:43:00,46.8,19.0,29.77,NNE,32,4.5,8.1,33,0.00,,,0.00,WUHU216WMR968SP,2013-04-02 10:43:00,
2013-04-02 05:48:00,46.8,19.0,29.74,NNE,30,3.3,7.6,33,0.00,,,0.00,WUHU216WMR968SP,2013-04-02 10:48:00,
2013-04-02 05:53:00,46.8,19.0,29.74,NNE,33,3.8,7.6,33,0.00,,,0.00,WUHU216WMR968SP,2013-04-02 10:53:00,
2013-04-02 05:58:00,46.8,19.0,29.74,NNE,29,4.0,7.6,33,0.00,,,0.00,WUHU216WMR968SP,2013-04-02 10:58:00,
2013-04-02 06:03:00,46.6,18.8,29.77,ENE,61,4.5,7.6,33,0.00,,,0.00,WUHU216WMR968SP,2013-04-02 11:03:00,
2013-04-02 06:08:00,46.6,18.1,29.77,NNE,14,4.8,7.6,32,0.00,,,0.00,WUHU216WMR968SP,2013-04-02 11:08:00,
2013-04-02 06:13:00,46.6,18.1,29.77,NNW,348,4.9,7.6,32,0.00,,,0.00,WUHU216WMR968SP,2013-04-02 11:13:00,
2013-04-02 06:18:00,46.6,18.1,29.77,NNE,23,4.9,8.3,32,0.00,,,0.00,WUHU216WMR968SP,2013-04-02 11:18:00,
2013-04-02 06:23:00,46.6,18.1,29.77,ENE,70,4.0,8.3,32,0.00,,,0.00,WUHU216WMR968SP,2013-04-02 11:23:00,
2013-04-02 06:28:00,46.4,17.9,29.77,North,353,5.4,8.1,32,0.00,,,0.00,WUHU216WMR968SP,2013-04-02 11:28:00,
2013-04-02 06:33:00,46.2,17.7,29.77,NNE,22,3.4,8.1,32,0.00,,,0.00,WUHU216WMR968SP,2013-04-02 11:33:00,
2013-04-02 06:38:00,46.2,17.7,29.77,NE,45,4.5,7.2,32,0.00,,,0.00,WUHU216WMR968SP,2013-04-02 11:38:00,
2013-04-02 06:43:00,46.0,17.5,29.77,NE,34,5.8,7.6,32,0.00,,,0.00,WUHU216WMR968SP,2013-04-02 11:43:00,
2013-04-02 06:48:00,45.9,17.4,29.77,NNE,24,4.2,7.6,32,0.00,,,0.00,WUHU216WMR968SP,2013-04-02 11:48:00,
2013-04-02 06:53:00,45.7,17.3,29.77,NE,38,4.0,7.6,32,0.00,,,0.00,WUHU216WMR968SP,2013-04-02 11:53:00,
2013-04-02 06:58:00,45.5,17.1,29.77,NE,46,3.4,6.3,32,0.00,,,0.00,WUHU216WMR968SP,2013-04-02 11:58:00,
2013-04-02 07:03:00,45.3,16.2,29.77,NE,52,4.1,6.3,31,0.00,,,0.00,WUHU216WMR968SP,2013-04-02 12:03:00,
2013-04-02 07:08:00,45.3,16.2,29.77,NE,37,4.2,6.3,31,0.00,,,0.00,WUHU216WMR968SP,2013-04-02 12:08:00,
2013-04-02 07:13:00,45.5,16.4,29.77,NNE,17,3.8,6.3,31,0.00,,,0.00,WUHU216WMR968SP,2013-04-02 12:13:00,
2013-04-02 07:18:00,45.7,16.5,29.77,NE,50,5.8,8.3,31,0.00,,,0.00,WUHU216WMR968SP,2013-04-02 12:18:00,
2013-04-02 07:23:00,45.7,15.8,29.77,NE,36,6.7,8.7,30,0.00,,,0.00,WUHU216WMR968SP,2013-04-02 12:23:00,
2013-04-02 07:28:00,46.0,16.1,29.77,NE,40,2.9,8.7,30,0.00,,,0.00,WUHU216WMR968SP,2013-04-02 12:28:00,
2013-04-02 07:33:00,46.2,16.2,29.80,NE,43,4.9,8.3,30,0.00,,,0.00,WUHU216WMR968SP,2013-04-02 12:33:00,
2013-04-02 07:38:00,46.4,15.6,29.80,North,2,6.7,9.6,29,0.00,,,0.00,WUHU216WMR968SP,2013-04-02 12:38:00,
2013-04-02 07:43:00,46.6,15.8,29.80,NNE,17,3.0,9.6,29,0.00,,,0.00,WUHU216WMR968SP,2013-04-02 12:43:00,
2013-04-02 07:48:00,46.4,15.6,29.83,NNE,31,4.0,8.3,29,0.00,,,0.00,WUHU216WMR968SP,2013-04-02 12:48:00,
2013-04-02 07:53:00,46.4,15.6,29.83,North,357,4.9,8.3,29,0.00,,,0.00,WUHU216WMR968SP,2013-04-02 12:53:00,
2013-04-02 07:58:00,46.4,15.6,29.83,ENE,69,4.9,8.3,29,0.00,,,0.00,WUHU216WMR968SP,2013-04-02 12:58:00,
2013-04-02 08:03:00,46.4,15.6,29.83,NE,42,3.3,5.8,29,0.00,,,0.00,WUHU216WMR968SP,2013-04-02 13:03:00,
2013-04-02 08:08:00,46.4,15.6,29.83,NNW,343,5.4,6.3,29,0.00,,,0.00,WUHU216WMR968SP,2013-04-02 13:08:00,
2013-04-02 08:13:00,46.4,14.8,29.83,NE,38,4.5,8.3,28,0.00,,,0.00,WUHU216WMR968SP,2013-04-02 13:13:00,
2013-04-02 08:18:00,46.6,15.0,29.83,NE,52,2.5,8.3,28,0.00,,,0.00,WUHU216WMR968SP,2013-04-02 13:18:00,
2013-04-02 08:23:00,46.6,15.8,29.83,NE,36,5.4,8.1,29,0.00,,,0.00,WUHU216WMR968SP,2013-04-02 13:23:00,
2013-04-02 08:28:00,46.4,14.8,29.83,NNW,330,5.4,8.1,28,0.00,,,0.00,WUHU216WMR968SP,2013-04-02 13:28:00,
2013-04-02 08:33:00,46.6,15.0,29.83,NNE,24,3.7,7.6,28,0.00,,,0.00,WUHU216WMR968SP,2013-04-02 13:33:00,
2013-04-02 08:38:00,46.6,15.0,29.83,NE,54,3.6,7.6,28,0.00,,,0.00,WUHU216WMR968SP,2013-04-02 13:38:00,
2013-04-02 08:43:00,46.6,15.0,29.83,NNE,21,4.5,7.6,28,0.00,,,0.00,WUHU216WMR968SP,2013-04-02 13:43:00,
2013-04-02 08:48:00,46.6,15.0,29.83,NE,54,3.6,6.3,28,0.00,,,0.00,WUHU216WMR968SP,2013-04-02 13:48:00,
2013-04-02 08:53:00,46.6,15.0,29.83,ENE,66,4.0,5.8,28,0.00,,,0.00,WUHU216WMR968SP,2013-04-02 13:53:00,
2013-04-02 08:58:00,46.6,15.0,29.83,NE,36,4.2,8.3,28,0.00,,,0.00,WUHU216WMR968SP,2013-04-02 13:58:00,
2013-04-02 09:03:00,46.8,15.2,29.83,NNE,23,3.6,8.3,28,0.00,,,0.00,WUHU216WMR968SP,2013-04-02 14:03:00,
2013-04-02 09:08:00,46.8,15.2,29.83,NE,56,4.5,7.6,28,0.00,,,0.00,WUHU216WMR968SP,2013-04-02 14:08:00,
2013-04-02 09:13:00,46.8,14.4,29.83,NE,49,6.7,11.9,27,0.00,,,0.00,WUHU216WMR968SP,2013-04-02 14:13:00,
2013-04-02 09:18:00,46.6,15.0,29.83,NE,36,3.7,11.9,28,0.00,,,0.00,WUHU216WMR968SP,2013-04-02 14:18:00,
2013-04-02 09:23:00,46.6,15.0,29.83,NE,40,4.7,8.7,28,0.00,,,0.00,WUHU216WMR968SP,2013-04-02 14:23:00,
2013-04-02 09:28:00,46.8,15.2,29.83,NE,55,4.1,8.7,28,0.00,,,0.00,WUHU216WMR968SP,2013-04-02 14:28:00,
2013-04-02 09:33:00,46.8,14.4,29.83,NE,49,5.4,8.3,27,0.00,,,0.00,WUHU216WMR968SP,2013-04-02 14:33:00,
2013-04-02 09:38:00,47.1,15.4,29.83,NE,39,4.5,6.3,28,0.00,,,0.00,WUHU216WMR968SP,2013-04-02 14:38:00,
2013-04-02 09:43:00,47.3,15.6,29.83,NE,41,3.1,6.3,28,0.00,,,0.00,WUHU216WMR968SP,2013-04-02 14:43:00,
2013-04-02 09:48:00,47.7,15.1,29.80,ENE,72,4.5,7.6,27,0.00,,,0.00,WUHU216WMR968SP,2013-04-02 14:48:00,
2013-04-02 09:53:00,47.7,15.1,29.80,North,11,8.7,11.0,27,0.00,,,0.00,WUHU216WMR968SP,2013-04-02 14:53:00,
2013-04-02 09:58:00,47.7,15.1,29.80,NE,34,6.3,11.0,27,0.00,,,0.00,WUHU216WMR968SP,2013-04-02 14:58:00,
2013-04-02 10:03:00,48.0,15.4,29.80,NNE,13,5.8,10.1,27,0.00,,,0.00,WUHU216WMR968SP,2013-04-02 15:03:00,
2013-04-02 10:08:00,48.6,15.9,29.80,NNE,21,4.9,9.6,27,0.00,,,0.00,WUHU216WMR968SP,2013-04-02 15:08:00,
2013-04-02 10:13:00,49.3,16.5,29.80,NNE,22,6.3,8.7,27,0.00,,,0.00,WUHU216WMR968SP,2013-04-02 15:13:00,
2013-04-02 10:18:00,49.8,16.1,29.83,North,10,5.9,8.7,26,0.00,,,0.00,WUHU216WMR968SP,2013-04-02 15:18:00,
2013-04-02 10:23:00,50.2,16.4,29.83,SSE,162,5.4,10.5,26,0.00,,,0.00,WUHU216WMR968SP,2013-04-02 15:23:00,
2013-04-02 10:28:00,51.1,17.2,29.83,NNE,33,5.8,10.5,26,0.00,,,0.00,WUHU216WMR968SP,2013-04-02 15:28:00,
2013-04-02 10:33:00,52.2,18.2,29.83,NE,46,4.5,10.5,26,0.00,,,0.00,WUHU216WMR968SP,2013-04-02 15:33:00,
2013-04-02 10:38:00,52.9,18.8,29.83,North,5,4.2,8.3,26,0.00,,,0.00,WUHU216WMR968SP,2013-04-02 15:38:00,
2013-04-02 10:43:00,53.6,16.6,29.83,NE,39,5.8,8.7,23,0.00,,,0.00,WUHU216WMR968SP,2013-04-02 15:43:00,
2013-04-02 10:48:00,54.1,17.0,29.83,North,357,4.5,8.7,23,0.00,,,0.00,WUHU216WMR968SP,2013-04-02 15:48:00,
2013-04-02 10:53:00,54.7,17.5,29.83,NNE,33,4.6,8.3,23,0.00,,,0.00,WUHU216WMR968SP,2013-04-02 15:53:00,
2013-04-02 10:58:00,54.1,17.0,29.83,NNE,33,4.9,8.3,23,0.00,,,0.00,WUHU216WMR968SP,2013-04-02 15:58:00,
2013-04-02 11:03:00,53.4,16.4,29.83,NE,41,3.6,8.3,23,0.00,,,0.00,WUHU216WMR968SP,2013-04-02 16:03:00,
2013-04-02 11:08:00,52.5,15.6,29.83,ENE,74,3.6,8.1,23,0.00,,,0.00,WUHU216WMR968SP,2013-04-02 16:08:00,
2013-04-02 11:13:00,52.2,15.4,29.83,ENE,70,3.1,8.1,23,0.00,,,0.00,WUHU216WMR968SP,2013-04-02 16:13:00,
2013-04-02 11:19:00,52.2,15.4,29.83,NNE,24,2.7,7.2,23,0.00,,,0.00,WUHU216WMR968SP,2013-04-02 16:19:00,
2013-04-02 11:24:00,52.0,15.2,29.83,NNE,21,4.5,5.8,23,0.00,,,0.00,WUHU216WMR968SP,2013-04-02 16:24:00,
2013-04-02 11:29:00,51.8,15.0,29.83,NNE,12,3.6,5.8,23,0.00,,,0.00,WUHU216WMR968SP,2013-04-02 16:29:00,
2013-04-02 11:34:00,51.4,15.7,29.83,NNE,12,5.4,8.1,24,0.00,,,0.00,WUHU216WMR968SP,2013-04-02 16:34:00,
2013-04-02 11:39:00,51.6,15.8,29.83,NNE,32,3.6,8.3,24,0.00,,,0.00,WUHU216WMR968SP,2013-04-02 16:39:00,
2013-04-02 11:44:00,51.8,15.0,29.83,NE,43,3.6,8.3,23,0.00,,,0.00,WUHU216WMR968SP,2013-04-02 16:44:00,
2013-04-02 11:49:00,52.0,15.2,29.83,NE,44,3.5,7.6,23,0.00,,,0.00,WUHU216WMR968SP,2013-04-02 16:49:00,
2013-04-02 11:54:00,51.8,15.0,29.83,ENE,57,4.4,7.6,23,0.00,,,0.00,WUHU216WMR968SP,2013-04-02 16:54:00,
2013-04-02 11:59:00,51.6,15.8,29.83,ENE,73,2.2,6.7,24,0.00,,,0.00,WUHU216WMR968SP,2013-04-02 16:59:00,
2013-04-02 12:04:00,51.6,15.8,29.83,NE,50,3.7,5.4,24,0.00,,,0.00,WUHU216WMR968SP,2013-04-02 17:04:00,
2013-04-02 12:09:00,51.4,15.7,29.83,NE,40,3.6,6.3,24,0.00,,,0.00,WUHU216WMR968SP,2013-04-02 17:09:00,
2013-04-02 12:14:00,51.3,15.6,29.83,NE,49,4.3,7.2,24,0.00,,,0.00,WUHU216WMR968SP,2013-04-02 17:14:00,
2013-04-02 12:19:00,51.3,15.6,29.83,NE,53,3.7,7.2,24,0.00,,,0.00,WUHU216WMR968SP,2013-04-02 17:19:00,
2013-04-02 12:24:00,51.4,15.7,29.83,NE,51,3.1,5.4,24,0.00,,,0.00,WUHU216WMR968SP,2013-04-02 17:24:00,
2013-04-02 12:29:00,51.6,15.8,29.83,North,353,0.0,5.8,24,0.00,,,0.00,WUHU216WMR968SP,2013-04-02 17:29:00,
2013-04-02 12:34:00,51.6,15.8,29.83,NNE,27,4.4,7.6,24,0.00,,,0.00,WUHU216WMR968SP,2013-04-02 17:34:00,
2013-04-02 12:39:00,51.4,15.7,29.83,NNE,17,3.6,7.6,24,0.00,,,0.00,WUHU216WMR968SP,2013-04-02 17:39:00,
2013-04-02 12:44:00,51.4,15.7,29.83,NNW,348,4.5,7.6,24,0.00,,,0.00,WUHU216WMR968SP,2013-04-02 17:44:00,
2013-04-02 12:49:00,51.6,15.8,29.83,NE,55,3.6,6.3,24,0.00,,,0.00,WUHU216WMR968SP,2013-04-02 17:49:00,
2013-04-02 12:54:00,51.6,15.8,29.83,NNE,26,4.5,6.3,24,0.00,,,0.00,WUHU216WMR968SP,2013-04-02 17:54:00,
2013-04-02 12:59:00,51.6,15.8,29.83,NE,44,2.5,7.6,24,0.00,,,0.00,WUHU216WMR968SP,2013-04-02 17:59:00,
2013-04-02 13:04:00,52.3,15.5,29.83,ENE,66,3.6,7.6,23,0.00,,,0.00,WUHU216WMR968SP,2013-04-02 18:04:00,
2013-04-02 13:09:00,53.1,16.1,29.83,NNE,21,3.3,5.4,23,0.00,,,0.00,WUHU216WMR968SP,2013-04-02 18:09:00,
2013-04-02 13:14:00,53.8,16.7,29.83,NE,39,3.6,5.8,23,0.00,,,0.00,WUHU216WMR968SP,2013-04-02 18:14:00,
2013-04-02 13:19:00,53.8,16.7,29.83,NNE,31,3.6,6.3,23,0.00,,,0.00,WUHU216WMR968SP,2013-04-02 18:19:00,
2013-04-02 13:24:00,53.2,14.2,29.83,NNE,29,4.9,8.3,21,0.00,,,0.00,WUHU216WMR968SP,2013-04-02 18:24:00,
2013-04-02 13:29:00,53.1,16.1,29.83,NNE,25,4.0,8.3,23,0.00,,,0.00,WUHU216WMR968SP,2013-04-02 18:29:00,
2013-04-02 13:34:00,53.2,16.2,29.83,NE,53,3.2,8.1,23,0.00,,,0.00,WUHU216WMR968SP,2013-04-02 18:34:00,
2013-04-02 13:39:00,53.4,16.4,29.83,NNE,30,2.8,6.3,23,0.00,,,0.00,WUHU216WMR968SP,2013-04-02 18:39:00,
2013-04-02 13:44:00,54.1,17.0,29.83,NNE,23,2.7,6.3,23,0.00,,,0.00,WUHU216WMR968SP,2013-04-02 18:44:00,
2013-04-02 13:50:00,54.9,17.7,29.80,North,10,4.9,8.1,23,0.00,,,0.00,WUHU216WMR968SP,2013-04-02 18:50:00,
2013-04-02 13:55:00,54.5,14.2,29.80,NE,50,5.8,8.1,20,0.00,,,0.00,WUHU216WMR968SP,2013-04-02 18:55:00,
2013-04-02 14:00:00,54.0,13.7,29.80,North,353,4.9,8.1,20,0.00,,,0.00,WUHU216WMR968SP,2013-04-02 19:00:00,
2013-04-02 14:05:00,54.0,16.9,29.80,NNE,17,4.0,7.6,23,0.00,,,0.00,WUHU216WMR968SP,2013-04-02 19:05:00,
2013-04-02 14:10:00,53.8,13.6,29.80,NE,44,3.3,9.6,20,0.00,,,0.00,WUHU216WMR968SP,2013-04-02 19:10:00,
2013-04-02 14:15:00,54.1,17.0,29.80,North,353,4.8,9.6,23,0.00,,,0.00,WUHU216WMR968SP,2013-04-02 19:15:00,
2013-04-02 14:20:00,54.3,17.1,29.80,NE,40,5.4,8.7,23,0.00,,,0.00,WUHU216WMR968SP,2013-04-02 19:20:00,
2013-04-02 14:25:00,54.1,13.8,29.80,North,357,6.7,10.1,20,0.00,,,0.00,WUHU216WMR968SP,2013-04-02 19:25:00,
2013-04-02 14:30:00,53.8,16.7,29.80,East,98,3.9,10.1,23,0.00,,,0.00,WUHU216WMR968SP,2013-04-02 19:30:00,
2013-04-02 14:35:00,53.6,16.6,29.80,North,0,5.8,9.6,23,0.00,,,0.00,WUHU216WMR968SP,2013-04-02 19:35:00,
2013-04-02 14:40:00,53.2,16.2,29.80,North,4,6.3,11.0,23,0.00,,,0.00,WUHU216WMR968SP,2013-04-02 19:40:00,
2013-04-02 14:45:00,53.2,16.2,29.80,NNE,14,6.7,11.0,23,0.00,,,0.00,WUHU216WMR968SP,2013-04-02 19:45:00,
2013-04-02 14:50:00,53.4,16.4,29.80,NNE,28,3.4,8.3,23,0.00,,,0.00,WUHU216WMR968SP,2013-04-02 19:50:00,
2013-04-02 14:55:00,53.4,16.4,29.80,North,353,6.3,10.1,23,0.00,,,0.00,WUHU216WMR968SP,2013-04-02 19:55:00,
2013-04-02 15:00:00,53.2,16.2,29.80,North,357,6.4,10.1,23,0.00,,,0.00,WUHU216WMR968SP,2013-04-02 20:00:00,
2013-04-02 15:05:00,53.1,16.1,29.80,NNE,24,4.9,10.1,23,0.00,,,0.00,WUHU216WMR968SP,2013-04-02 20:05:00,
2013-04-02 15:10:00,52.7,13.8,29.80,NNE,23,7.6,10.1,21,0.00,,,0.00,WUHU216WMR968SP,2013-04-02 20:10:00,
2013-04-02 15:15:00,52.7,13.8,29.80,NNW,340,8.3,11.0,21,0.00,,,0.00,WUHU216WMR968SP,2013-04-02 20:15:00,
2013-04-02 15:20:00,52.7,15.8,29.77,North,352,5.0,11.0,23,0.00,,,0.00,WUHU216WMR968SP,2013-04-02 20:20:00,
2013-04-02 15:25:00,52.7,15.8,29.77,NNE,18,6.3,11.0,23,0.00,,,0.00,WUHU216WMR968SP,2013-04-02 20:25:00,
2013-04-02 15:30:00,52.7,15.8,29.77,North,0,7.2,10.5,23,0.00,,,0.00,WUHU216WMR968SP,2013-04-02 20:30:00,
2013-04-02 15:35:00,52.5,15.6,29.77,NNE,19,5.9,11.0,23,0.00,,,0.00,WUHU216WMR968SP,2013-04-02 20:35:00,
2013-04-02 15:40:00,52.9,16.0,29.77,NNE,24,7.2,11.0,23,0.00,,,0.00,WUHU216WMR968SP,2013-04-02 20:40:00,
2013-04-02 15:45:00,52.9,16.0,29.77,NNE,31,6.7,10.5,23,0.00,,,0.00,WUHU216WMR968SP,2013-04-02 20:45:00,
2013-04-02 15:50:00,52.3,15.5,29.80,NNE,12,5.4,10.5,23,0.00,,,0.00,WUHU216WMR968SP,2013-04-02 20:50:00,
2013-04-02 15:55:00,51.6,15.8,29.80,NNW,345,6.1,10.5,24,0.00,,,0.00,WUHU216WMR968SP,2013-04-02 20:55:00,
2013-04-02 16:00:00,51.1,15.4,29.80,North,4,5.4,10.1,24,0.00,,,0.00,WUHU216WMR968SP,2013-04-02 21:00:00,
2013-04-02 16:05:00,50.7,15.1,29.80,NNE,19,5.6,10.5,24,0.00,,,0.00,WUHU216WMR968SP,2013-04-02 21:05:00,
2013-04-02 16:10:00,50.7,15.1,29.80,North,0,7.2,11.0,24,0.00,,,0.00,WUHU216WMR968SP,2013-04-02 21:10:00,
2013-04-02 16:15:00,50.5,14.9,29.80,North,0,5.0,11.0,24,0.00,,,0.00,WUHU216WMR968SP,2013-04-02 21:15:00,
2013-04-02 16:20:00,50.5,14.9,29.80,North,3,5.2,11.9,24,0.00,,,0.00,WUHU216WMR968SP,2013-04-02 21:20:00,
2013-04-02 16:25:00,50.4,14.8,29.80,NE,36,3.6,11.9,24,0.00,,,0.00,WUHU216WMR968SP,2013-04-02 21:25:00,
2013-04-02 16:31:00,50.4,14.8,29.80,North,353,5.4,9.6,24,0.00,,,0.00,WUHU216WMR968SP,2013-04-02 21:31:00,
2013-04-02 16:37:00,50.2,14.6,29.80,NE,44,6.7,8.7,24,0.00,,,0.00,WUHU216WMR968SP,2013-04-02 21:37:00,
2013-04-02 16:42:00,50.0,14.5,29.80,NNE,12,3.4,8.7,24,0.00,,,0.00,WUHU216WMR968SP,2013-04-02 21:42:00,
2013-04-02 16:47:00,50.0,14.5,29.80,NNE,26,5.1,8.7,24,0.00,,,0.00,WUHU216WMR968SP,2013-04-02 21:47:00,
2013-04-02 16:52:00,50.0,14.5,29.80,NE,35,3.5,10.1,24,0.00,,,0.00,WUHU216WMR968SP,2013-04-02 21:52:00,
2013-04-02 16:57:00,50.0,14.5,29.80,NNE,24,5.8,10.1,24,0.00,,,0.00,WUHU216WMR968SP,2013-04-02 21:57:00,
2013-04-02 17:02:00,50.0,14.5,29.80,NNW,342,5.4,8.7,24,0.00,,,0.00,WUHU216WMR968SP,2013-04-02 22:02:00,
2013-04-02 17:07:00,49.6,15.9,29.80,North,355,5.9,11.4,26,0.00,,,0.00,WUHU216WMR968SP,2013-04-02 22:07:00,
2013-04-02 17:12:00,49.5,15.8,29.80,NNE,18,4.5,11.4,26,0.00,,,0.00,WUHU216WMR968SP,2013-04-02 22:12:00,
2013-04-02 17:17:00,48.7,15.2,29.80,NNW,332,5.8,10.5,26,0.00,,,0.00,WUHU216WMR968SP,2013-04-02 22:17:00,
2013-04-02 17:22:00,48.4,15.7,29.80,NNE,12,2.7,10.5,27,0.00,,,0.00,WUHU216WMR968SP,2013-04-02 22:22:00,
2013-04-02 17:27:00,48.4,15.7,29.80,North,349,3.6,8.3,27,0.00,,,0.00,WUHU216WMR968SP,2013-04-02 22:27:00,
2013-04-02 17:32:00,48.2,15.6,29.80,North,357,3.6,8.3,27,0.00,,,0.00,WUHU216WMR968SP,2013-04-02 22:32:00,
2013-04-02 17:38:00,48.0,15.4,29.80,NE,36,6.7,8.7,27,0.00,,,0.00,WUHU216WMR968SP,2013-04-02 22:38:00,
2013-04-02 17:43:00,47.7,15.1,29.80,NNW,336,5.8,9.6,27,0.00,,,0.00,WUHU216WMR968SP,2013-04-02 22:43:00,
2013-04-02 17:48:00,47.3,14.8,29.80,North,357,4.5,9.6,27,0.00,,,0.00,WUHU216WMR968SP,2013-04-02 22:48:00,
2013-04-02 17:53:00,46.4,14.8,29.80,North,357,5.8,8.7,28,0.00,,,0.00,WUHU216WMR968SP,2013-04-02 22:53:00,
2013-04-02 17:58:00,45.5,14.8,29.80,North,11,2.9,8.7,29,0.00,,,0.00,WUHU216WMR968SP,2013-04-02 22:58:00,
2013-04-02 18:03:00,43.7,17.6,29.80,NE,34,4.9,6.3,35,0.00,,,0.00,WUHU216WMR968SP,2013-04-02 23:03:00,
2013-04-02 18:08:00,42.3,18.9,29.80,North,10,4.0,8.3,39,0.00,,,0.00,WUHU216WMR968SP,2013-04-02 23:08:00,
2013-04-02 18:13:00,41.5,19.4,29.80,NNE,20,3.6,8.3,41,0.00,,,0.00,WUHU216WMR968SP,2013-04-02 23:13:00,
2013-04-02 18:18:00,41.0,19.5,29.80,North,3,0.0,5.4,42,0.00,,,0.00,WUHU216WMR968SP,2013-04-02 23:18:00,
2013-04-02 18:23:00,40.8,20.4,29.80,North,1,4.5,6.3,44,0.00,,,0.00,WUHU216WMR968SP,2013-04-02 23:23:00,
2013-04-02 18:28:00,40.8,21.5,29.80,NW,322,4.5,6.3,46,0.00,,,0.00,WUHU216WMR968SP,2013-04-02 23:28:00,
2013-04-02 18:33:00,40.8,22.0,29.80,North,4,5.4,6.3,47,0.00,,,0.00,WUHU216WMR968SP,2013-04-02 23:33:00,
2013-04-02 18:38:00,40.6,23.4,29.80,North,4,5.4,6.3,50,0.00,,,0.00,WUHU216WMR968SP,2013-04-02 23:38:00,
2013-04-02 18:43:00,40.5,23.3,29.80,North,10,2.7,5.4,50,0.00,,,0.00,WUHU216WMR968SP,2013-04-02 23:43:00,
2013-04-02 18:49:00,40.3,23.6,29.80,North,357,2.2,5.8,51,0.00,,,0.00,WUHU216WMR968SP,2013-04-02 23:49:00,
2013-04-02 18:54:00,40.3,24.0,29.80,North,10,2.2,5.8,52,0.00,,,0.00,WUHU216WMR968SP,2013-04-02 23:54:00,
2013-04-02 18:59:00,40.3,24.5,29.80,NNW,336,3.1,5.8,53,0.00,,,0.00,WUHU216WMR968SP,2013-04-02 23:59:00,
2013-04-02 19:04:00,40.1,24.8,29.80,NNE,13,3.3,4.9,54,0.00,,,0.00,WUHU216WMR968SP,2013-04-03 00:04:00,
2013-04-02 19:09:00,40.1,25.7,29.80,NNE,16,3.5,6.3,56,0.00,,,0.00,WUHU216WMR968SP,2013-04-03 00:09:00,
2013-04-02 19:14:00,39.9,25.9,29.80,North,3,3.4,6.3,57,0.00,,,0.00,WUHU216WMR968SP,2013-04-03 00:14:00,
2013-04-02 19:19:00,39.9,25.9,29.80,North,357,3.6,5.4,57,0.00,,,0.00,WUHU216WMR968SP,2013-04-03 00:19:00,
2013-04-02 19:24:00,40.3,27.2,29.80,NNE,21,2.7,5.4,59,0.00,,,0.00,WUHU216WMR968SP,2013-04-03 00:24:00,
2013-04-02 19:29:00,40.8,28.0,29.80,NNE,15,3.0,4.5,60,0.00,,,0.00,WUHU216WMR968SP,2013-04-03 00:29:00,
2013-04-02 19:34:00,41.2,28.0,29.77,North,353,0.0,4.9,59,0.00,,,0.00,WUHU216WMR968SP,2013-04-03 00:34:00,
2013-04-02 19:39:00,41.5,27.9,29.77,North,10,4.0,5.4,58,0.00,,,0.00,WUHU216WMR968SP,2013-04-03 00:39:00,
2013-04-02 19:44:00,41.5,27.0,29.77,North,357,2.7,8.1,56,0.00,,,0.00,WUHU216WMR968SP,2013-04-03 00:44:00,
2013-04-02 19:49:00,41.4,26.5,29.77,NNW,339,4.5,8.1,55,0.00,,,0.00,WUHU216WMR968SP,2013-04-03 00:49:00,
2013-04-02 19:54:00,41.4,26.0,29.77,NNW,339,2.7,8.7,54,0.00,,,0.00,WUHU216WMR968SP,2013-04-03 00:54:00,
2013-04-02 19:59:00,41.4,25.5,29.77,North,353,0.0,8.7,53,0.00,,,0.00,WUHU216WMR968SP,2013-04-03 00:59:00,
2013-04-02 20:04:00,41.2,25.3,29.80,North,11,2.7,4.0,53,0.00,,,0.00,WUHU216WMR968SP,2013-04-03 01:04:00,
2013-04-02 20:09:00,40.6,25.3,29.80,North,357,4.0,4.9,54,0.00,,,0.00,WUHU216WMR968SP,2013-04-03 01:09:00,
2013-04-02 20:14:00,40.5,25.2,29.80,NNE,16,0.0,4.9,54,0.00,,,0.00,WUHU216WMR968SP,2013-04-03 01:14:00,
2013-04-02 20:19:00,40.3,25.4,29.80,NNE,21,3.1,4.0,55,0.00,,,0.00,WUHU216WMR968SP,2013-04-03 01:19:00,
2013-04-02 20:24:00,40.3,25.9,29.80,North,0,0.0,4.0,56,0.00,,,0.00,WUHU216WMR968SP,2013-04-03 01:24:00,
2013-04-02 20:29:00,40.3,25.9,29.80,North,5,2.2,5.4,56,0.00,,,0.00,WUHU216WMR968SP,2013-04-03 01:29:00,
2013-04-02 20:34:00,40.3,26.3,29.80,NNE,16,0.0,5.4,57,0.00,,,0.00,WUHU216WMR968SP,2013-04-03 01:34:00,
2013-04-02 20:39:00,40.3,26.3,29.80,NE,36,3.6,5.4,57,0.00,,,0.00,WUHU216WMR968SP,2013-04-03 01:39:00,
2013-04-02 20:44:00,40.3,26.3,29.80,North,3,2.7,3.6,57,0.00,,,0.00,WUHU216WMR968SP,2013-04-03 01:44:00,
2013-04-02 20:49:00,40.3,26.3,29.80,NNW,348,2.7,7.2,57,0.00,,,0.00,WUHU216WMR968SP,2013-04-03 01:49:00,
2013-04-02 20:54:00,40.5,26.5,29.80,NNE,23,3.8,7.2,57,0.00,,,0.00,WUHU216WMR968SP,2013-04-03 01:54:00,
2013-04-02 20:59:00,40.5,26.5,29.80,North,0,4.5,7.2,57,0.00,,,0.00,WUHU216WMR968SP,2013-04-03 01:59:00,
2013-04-02 21:04:00,40.6,27.0,29.80,North,357,3.1,5.4,58,0.00,,,0.00,WUHU216WMR968SP,2013-04-03 02:04:00,
2013-04-02 21:09:00,40.3,26.7,29.80,NNE,20,4.9,5.4,58,0.00,,,0.00,WUHU216WMR968SP,2013-04-03 02:09:00,
2013-04-02 21:15:00,39.7,26.2,29.80,NNE,18,0.0,4.9,58,0.00,,,0.00,WUHU216WMR968SP,2013-04-03 02:15:00,
2013-04-02 21:20:00,39.6,26.5,29.80,North,6,3.1,4.9,59,0.00,,,0.00,WUHU216WMR968SP,2013-04-03 02:20:00,
2013-04-02 21:25:00,39.2,26.9,29.80,North,11,3.1,5.8,61,0.00,,,0.00,WUHU216WMR968SP,2013-04-03 02:25:00,
2013-04-02 21:30:00,39.0,27.9,29.80,North,357,4.0,5.8,64,0.00,,,0.00,WUHU216WMR968SP,2013-04-03 02:30:00,
2013-04-02 21:35:00,38.8,28.1,29.80,North,357,4.0,5.8,65,0.00,,,0.00,WUHU216WMR968SP,2013-04-03 02:35:00,
2013-04-02 21:40:00,38.8,28.5,29.80,North,8,5.2,5.8,66,0.00,,,0.00,WUHU216WMR968SP,2013-04-03 02:40:00,
2013-04-02 21:45:00,38.8,29.2,29.80,NNE,12,3.7,5.8,68,0.00,,,0.00,WUHU216WMR968SP,2013-04-03 02:45:00,
2013-04-02 21:50:00,38.8,29.6,29.83,NNW,343,3.6,8.7,69,0.00,,,0.00,WUHU216WMR968SP,2013-04-03 02:50:00,
2013-04-02 21:55:00,38.8,29.9,29.83,NNW,343,3.6,8.7,70,0.00,,,0.00,WUHU216WMR968SP,2013-04-03 02:55:00,
2013-04-02 22:00:00,38.8,29.9,29.83,NNW,343,3.6,8.7,70,0.00,,,0.00,WUHU216WMR968SP,2013-04-03 03:00:00,
2013-04-02 22:05:00,38.8,30.3,29.80,North,11,2.2,8.7,71,0.00,,,0.00,WUHU216WMR968SP,2013-04-03 03:05:00,
2013-04-02 22:10:00,38.8,30.3,29.80,North,11,2.2,8.7,71,0.00,,,0.00,WUHU216WMR968SP,2013-04-03 03:10:00,
2013-04-02 22:15:00,38.8,30.6,29.80,North,1,2.2,3.1,72,0.00,,,0.00,WUHU216WMR968SP,2013-04-03 03:15:00,
2013-04-02 22:20:00,38.8,30.6,29.83,NE,54,2.2,3.1,72,0.00,,,0.00,WUHU216WMR968SP,2013-04-03 03:20:00,
2013-04-02 22:25:00,38.8,30.6,29.83,NE,54,2.2,2.7,72,0.00,,,0.00,WUHU216WMR968SP,2013-04-03 03:25:00,
2013-04-02 22:30:00,38.8,30.6,29.83,North,357,3.1,4.0,72,0.00,,,0.00,WUHU216WMR968SP,2013-04-03 03:30:00,
2013-04-02 22:35:00,38.8,30.6,29.80,North,357,3.1,4.0,72,0.00,,,0.00,WUHU216WMR968SP,2013-04-03 03:35:00,
2013-04-02 22:40:00,38.8,30.3,29.80,NNE,16,2.7,5.4,71,0.00,,,0.00,WUHU216WMR968SP,2013-04-03 03:40:00,
2013-04-02 22:45:00,38.8,30.3,29.80,NNW,341,3.6,5.8,71,0.00,,,0.00,WUHU216WMR968SP,2013-04-03 03:45:00,
2013-04-02 22:50:00,38.8,30.6,29.83,North,1,3.6,5.8,72,0.00,,,0.00,WUHU216WMR968SP,2013-04-03 03:50:00,
2013-04-02 22:55:00,38.8,30.6,29.83,NNE,22,4.5,5.8,72,0.00,,,0.00,WUHU216WMR968SP,2013-04-03 03:55:00,
2013-04-02 23:00:00,38.8,30.3,29.83,North,349,4.9,7.6,71,0.00,,,0.00,WUHU216WMR968SP,2013-04-03 04:00:00,
2013-04-02 23:05:00,38.8,30.3,29.80,NNE,13,4.5,7.6,71,0.00,,,0.00,WUHU216WMR968SP,2013-04-03 04:05:00,
2013-04-02 23:10:00,39.0,30.1,29.80,North,3,4.0,7.6,70,0.00,,,0.00,WUHU216WMR968SP,2013-04-03 04:10:00,
2013-04-02 23:15:00,39.6,30.3,29.80,NE,38,3.1,4.9,69,0.00,,,0.00,WUHU216WMR968SP,2013-04-03 04:15:00,
2013-04-02 23:20:00,39.9,30.3,29.80,NE,38,3.1,4.0,68,0.00,,,0.00,WUHU216WMR968SP,2013-04-03 04:20:00,
2013-04-02 23:25:00,40.1,29.4,29.80,NE,38,3.1,3.1,65,0.00,,,0.00,WUHU216WMR968SP,2013-04-03 04:25:00,
2013-04-02 23:30:00,40.3,28.8,29.80,NNE,27,3.1,5.8,63,0.00,,,0.00,WUHU216WMR968SP,2013-04-03 04:30:00,
2013-04-02 23:35:00,40.3,27.6,29.77,NNE,33,4.7,6.3,60,0.00,,,0.00,WUHU216WMR968SP,2013-04-03 04:35:00,
2013-04-02 23:40:00,40.5,26.9,29.77,North,9,4.4,6.3,58,0.00,,,0.00,WUHU216WMR968SP,2013-04-03 04:40:00,
2013-04-02 23:45:00,40.5,26.1,29.77,NNE,21,5.6,8.3,56,0.00,,,0.00,WUHU216WMR968SP,2013-04-03 04:45:00,
2013-04-02 23:50:00,40.5,25.6,29.77,NNE,29,5.4,9.2,55,0.00,,,0.00,WUHU216WMR968SP,2013-04-03 04:50:00,
2013-04-02 23:55:00,40.5,25.6,29.77,North,8,4.5,9.2,55,0.00,,,0.00,WUHU216WMR968SP,2013-04-03 04:55:00,